Flag for Jordan Weather past 2 weeks in Amman, Jordan

Now
61 °F

Clear.


Feels Like: 61 °F
Forecast: 47 / 65 °F
Wind: 9 mph from East

Location: Amman Airport

Current Time: Mar 5, 2015 at 6:10:42 PM

Latest Report: Mar 5, 2015 at 5:00 PM


Visibility: 4 mi

Pressure: 30.15 "Hg

Humidity: 34%

Dew point: 32 °F

Location of AmmanLocation

Historic Weather in Amman — Graph

°F

Amman temperature yesterday

Maximum temperature yesterday: 54 °F (at 1:00 PM)
Minimum temperature yesterday: 46 °F (at 11:00 PM)
Average temperature yesterday: 50 °F

Past Weeks' High & Low Weather Summary

 TemperatureHumidityPressure
High72 °F (Feb 27, 3:00 PM)100% (Feb 20, 5:00 AM)30.27 "Hg (Feb 20, 5:00 AM)
Low30 °F (Feb 20, 4:00 AM)22% (Feb 27, 3:00 PM)29.65 "Hg (Feb 20, 5:00 AM)
Average48 °F70%30.04 "Hg
* Reported Feb 18 5:00 PM — Mar 5 5:00 PM, Amman, Weather by CustomWeather, © 2015

Note: Actual official high and low records may vary slightly from our data, if they occured in-between our weather recording intervals... More about our weather records

Advertising

Amman weather history for previous 24 hours

 ConditionsComfort  
Time TempWeatherWind HumidityBarometerVisibility
5:00 PM
Thu, Mar 5
61 °FClear.9 mph34%30.15 "Hg4 mi
4:00 PM61 °FClear.12 mph39%30.15 "Hg4 mi
3:00 PM61 °FClear.12 mph39%30.15 "Hg4 mi
2:00 PM61 °FClear.12 mph45%30.15 "Hg4 mi
1:00 PM59 °FScattered clouds.12 mph55%30.15 "Hg4 mi
12:00 PM57 °FScattered clouds.12 mph55%30.15 "Hg4 mi
11:00 AM55 °FScattered clouds.12 mph67%30.15 "Hg3 mi
10:00 AM50 °FPartly sunny.5 mph82%30.18 "Hg1 mi
9:00 AM46 °FFog.5 mph93%30.18 "Hg1 mi
8:00 AM43 °FFog.5 mph100%30.15 "Hg1 mi
7:15 AM41 °FFog.5 mph100%30.15 "Hg1 mi
7:00 AM41 °FFog.5 mph100%30.15 "Hg1 mi
6:00 AM43 °FFog.No wind93%30.12 "Hg1 mi
5:00 AM45 °FFog.5 mph87%30.09 "Hg3 mi
4:00 AM45 °FFog.No wind87%30.09 "Hg3 mi
3:00 AM45 °FHaze.No wind87%30.09 "Hg3 mi
2:00 AM46 °FHaze.No wind82%30.09 "Hg3 mi
1:00 AM46 °FPassing clouds.3 mph82%30.12 "Hg3 mi
12:00 AM48 °FPassing clouds.3 mph82%30.12 "Hg3 mi
11:00 PM
Wed, Mar 4
46 °FPassing clouds.5 mph87%30.12 "Hg3 mi
10:00 PM48 °FPassing clouds.3 mph82%30.12 "Hg3 mi
9:00 PM50 °FPassing clouds.6 mph76%30.12 "Hg3 mi
8:00 PM50 °FPassing clouds.6 mph88%30.12 "Hg3 mi
7:00 PM50 °FPassing clouds.10 mph88%30.12 "Hg3 mi
6:00 PM52 °FPassing clouds.9 mph77%30.12 "Hg2 mi
Weather by CustomWeather, © 2015

See weather overviewHow to use our weather pages